GW0865 Weather Reports


time (UTC)temp
C
wind
direction
speed
KPH
gust
KPH
rain 1hr
cm
rain 24hr
cm
rain mn
cm
humidity
%
barometer
mb
20260510234546 3 0 0.0 1.6 0.00 0.00 0.00 85 1013.2
20260510233041 3 0 0.0 1.6 0.00 0.00 0.00 85 1013.4
20260510231538 3 0 0.0 1.6 0.00 0.00 0.00 83 1013.6
20260510230044 4 0 0.0 1.6 0.00 0.00 0.00 82 1013.8
20260510224545 4 0 0.0 0.0 0.00 0.00 0.00 81 1013.9
20260510223044 5 0 0.0 1.6 0.00 0.00 0.00 80 1014.2
20260510221543 5 281 0.0 8.0 0.00 0.00 0.00 80 1014.2
20260510220042 5 16 0.0 1.6 0.00 0.00 0.00 80 1014.2
20260510214543 5 0 0.0 0.0 0.00 0.00 0.00 79 1014.2
20260510213044 6 0 0.0 0.0 0.00 0.00 0.00 77 1014.3
20260510211545 6 0 0.0 1.6 0.00 0.00 0.00 75 1014.3
20260510210039 7 0 0.0 0.0 0.00 0.00 0.00 70 1014.3
20260510204541 7 0 0.0 1.6 0.00 0.00 0.00 65 1014.2
20260510203043 8 0 0.0 1.6 0.00 0.00 0.00 63 1014.4
20260510201540 8 80 0.0 4.8 0.00 0.00 0.00 60 1014.2
20260510200108 9 78 0.0 6.4 0.00 0.00 0.00 59 1014.3
20260510194552 10 75 1.6 8.0 0.00 0.00 0.00 57 1014.3
20260510193045 10 70 3.2 8.0 0.00 0.00 0.00 55 1014.4
20260510191547 10 81 3.2 9.7 0.00 0.00 0.00 55 1014.5
20260510190040 11 80 4.8 16.1 0.00 0.00 0.00 53 1014.5
20260510184543 11 69 4.8 12.9 0.00 0.00 0.00 51 1014.6
20260510183046 11 82 4.8 12.9 0.00 0.00 0.00 50 1014.8
20260510181539 11 54 4.8 16.1 0.00 0.00 0.00 50 1014.5
20260510180039 12 70 8.0 16.1 0.00 0.00 0.00 48 1014.6
20260510174543 12 19 4.8 9.7 0.00 0.00 0.00 47 1014.7
20260510173051 13 325 4.8 19.3 0.00 0.00 0.00 46 1014.4
20260510171543 13 284 6.4 19.3 0.00 0.00 0.00 48 1014.5
20260510170038 12 90 1.6 14.5 0.00 0.00 0.00 50 1014.8
20260510164545 12 123 4.8 14.5 0.00 0.00 0.00 49 1015.1
20260510163046 12 57 9.7 22.5 0.00 0.00 0.00 48 1015.2
20260510161545 12 14 8.0 24.1 0.00 0.00 0.00 49 1015.4
20260510160048 13 78 11.3 19.3 0.00 0.00 0.00 48 1015.5
20260510154543 13 59 9.7 19.3 0.00 0.00 0.00 48 1015.8
20260510153042 13 68 8.0 22.5 0.00 0.00 0.00 47 1015.9
20260510151543 13 69 8.0 20.9 0.00 0.00 0.00 47 1016.0
20260510150050 13 348 8.0 25.7 0.00 0.00 0.00 49 1016.2
20260510144543 13 42 9.7 25.7 0.00 0.00 0.00 48 1016.4
20260510143040 13 104 9.7 27.4 0.00 0.00 0.00 50 1016.5
20260510141539 13 50 8.0 22.5 0.00 0.00 0.00 48 1016.7
20260510140037 13 80 9.7 30.6 0.00 0.00 0.00 51 1016.9
20260510134539 13 56 8.0 25.7 0.00 0.00 0.00 51 1016.8
20260510133049 12 73 12.9 29.0 0.00 0.00 0.00 54 1017.0
20260510131540 13 55 9.7 19.3 0.00 0.00 0.00 55 1017.0
20260510130041 12 74 11.3 24.1 0.00 0.00 0.00 57 1017.0
20260510124546 13 40 8.0 17.7 0.00 0.00 0.00 56 1017.5
20260510123057 12 92 8.0 24.1 0.00 0.00 0.00 58 1017.6
20260510121540 11 80 12.9 22.5 0.00 0.00 0.00 58 1017.8
20260510120040 11 51 9.7 24.1 0.00 0.00 0.00 62 1017.9
20260510114540 11 96 9.7 20.9 0.00 0.00 0.00 62 1018.1
20260510113044 11 124 9.7 20.9 0.00 0.00 0.00 66 1018.2
20260510111544 11 54 12.9 27.4 0.00 0.00 0.00 65 1018.4
20260510110042 11 76 14.5 29.0 0.00 0.00 0.00 67 1018.6
20260510104542 11 52 9.7 25.7 0.00 0.00 0.00 68 1018.7
20260510103042 10 51 9.7 22.5 0.00 0.00 0.00 70 1018.6
20260510101540 10 101 8.0 24.1 0.00 0.00 0.00 71 1018.7
20260510100044 10 100 9.7 25.7 0.00 0.00 0.00 72 1018.9
20260510094541 9 88 14.5 27.4 0.00 0.00 0.00 73 1018.9
20260510093039 9 86 6.4 24.1 0.00 0.00 0.00 75 1019.1
20260510091542 9 49 9.7 25.7 0.00 0.00 0.00 75 1019.1
20260510090040 9 80 6.4 20.9 0.00 0.00 0.00 76 1019.2
20260510084540 8 59 6.4 20.9 0.00 0.00 0.00 77 1019.3
20260510083041 8 72 9.7 24.1 0.00 0.00 0.00 78 1019.3
20260510081545 8 76 9.7 25.7 0.00 0.00 0.00 79 1019.3
20260510080041 8 104 8.0 25.7 0.00 0.00 0.00 81 1019.3
20260510074540 7 44 8.0 22.5 0.00 0.00 0.00 82 1019.2
20260510073103 7 51 6.4 19.3 0.00 0.00 0.00 83 1019.2
20260510071548 7 75 8.0 19.3 0.00 0.00 0.00 84 1019.2
20260510070045 7 80 9.7 22.5 0.00 0.00 0.00 84 1019.2
20260510064549 7 75 9.7 25.7 0.00 0.00 0.00 85 1019.3
20260510063043 7 73 8.0 16.1 0.00 0.00 0.00 85 1019.2
20260510061540 7 59 8.0 22.5 0.00 0.00 0.00 86 1019.2
20260510060041 7 87 11.3 27.4 0.00 0.00 0.00 86 1019.0
20260510054540 7 64 8.0 19.3 0.00 0.00 0.00 86 1018.9
20260510053041 8 44 4.8 19.3 0.00 0.00 0.00 86 1019.0
20260510051544 8 77 8.0 17.7 0.00 0.00 0.00 87 1019.0
20260510050043 8 82 11.3 22.5 0.00 0.00 0.00 87 1018.9
20260510044548 8 89 8.0 19.3 0.00 0.00 0.00 88 1018.9
20260510043041 8 53 6.4 19.3 0.00 0.00 0.00 88 1018.9
20260510041541 8 34 6.4 14.5 0.00 0.00 0.00 89 1018.8
20260510040049 8 58 8.0 17.7 0.00 0.00 0.00 89 1018.9
20260510034545 8 344 9.7 17.7 0.00 0.00 0.00 90 1019.0
20260510033042 8 61 4.8 19.3 0.00 0.00 0.00 90 1018.9
20260510031550 8 61 3.2 16.1 0.00 0.00 0.00 90 1019.2
20260510030039 8 66 6.4 17.7 0.00 0.00 0.00 90 1019.3
20260510024657 8 90 8.0 19.3 0.00 0.00 0.00 90 1019.3
20260510023038 8 49 12.9 20.9 0.00 0.00 0.00 91 1019.4
20260510021540 8 81 11.3 19.3 0.00 0.00 0.00 91 1019.6
20260510020036 8 65 8.0 19.3 0.00 0.00 0.00 91 1019.7
20260510014545 8 39 6.4 20.9 0.00 0.00 0.00 91 1019.8
20260510013041 8 85 6.4 24.1 0.00 0.00 0.00 90 1019.7
20260510011539 8 79 12.9 22.5 0.00 0.00 0.00 89 1019.5
20260510010039 8 48 6.4 22.5 0.00 0.00 0.00 89 1019.2
20260510004540 9 18 11.3 24.1 0.00 0.00 0.00 86 1019.0
20260510003046 10 75 8.0 20.9 0.00 0.00 0.00 85 1018.9
20260510001554 10 58 8.0 22.5 0.00 0.00 0.00 87 1019.1
20260510000039 10 68 8.0 17.7 0.00 0.00 0.00 86 1019.1